Content
SEND FEEDBACK

Daily
Averages
Monthly
Summary
United States of America

ST. LOUIS, MISSOURI


Home > North America > United States > Missouri
Elevation: 163 meters     Latitude: 38 45N     Longitude: 090 22W

WEATHER
 
SELECT A DAY
Number of Records: 196,318;   Date Range: 1/1/95 - 7/23/14
 
SHARE

PRINT THIS DATA

[ ← Previous Day ]
WEATHER ALMANAC - 19 APRIL, 2013
[ Next Day → ]
[ °F ]   °C
Weather ElementAverageHighLow
Temperature6.7 °C10.6 °C (2:54 pm)2.2 °C (11:54 pm)
Dewpoint-3.3 °C-1.7 °C (9:54 pm)-5.6 °C (5:54 pm)
Humidity51 %76 % (11:54 pm)33 % (4:54 pm)
Barometer1013.2 hPa1019 hPa (11:54 pm)1008.5 hPa (1:54 am)
Wind Speed23.3 km/h37 km/h (5:54 pm)
Wind Gust53.8 km/h (3:54 am)
Weather ElementAverage
Visibility16.1 km
Wind DirectionWSW (255 °)

Weather ElementTotal
Precipitation---
Heating Degree Days11.9 (Base 18.3)
Averaged from 20 records on 19 April, 2013
WEATHER CONDITIONS BREAKOUT
WIND DIRECTION BREAKOUT
WEATHER BY HOUR - 19 APRIL, 2013
[ °F ]   °C
Local TimeTemperatureDewpointHumidityBarometerVisibilityWind DirectionWind SpeedGust SpeedPrecipitationEventsConditions
1:54 AM5 °C-2.2 °C60 %1008.5 hPa16.1 kmWest (270°)25.9 km/h42.6 km/hOvercast
2:54 AM5 °C-2.2 °C60 %1008.8 hPa16.1 kmWest (270°)29.6 km/h46.3 km/hOvercast
3:54 AM4.4 °C-3.3 °C58 %1008.8 hPa16.1 kmWest (270°)22.2 km/h53.8 km/hOvercast
4:54 AM4.4 °C-3.3 °C58 %1009.5 hPa16.1 kmWest (280°)25.9 km/h42.6 km/hOvercast
8:54 AM3.3 °C-3.3 °C62 %1011.9 hPa16.1 kmWest (260°)18.5 km/h37 km/hOvercast
9:54 AM3.9 °C-3.3 °C60 %1012.2 hPa16.1 kmWest (260°)22.2 km/h37 km/hOvercast
10:54 AM5 °C-2.2 °C60 %1012.5 hPa16.1 kmWest (270°)20.4 km/h38.9 km/hOvercast
11:54 AM6.7 °C-2.2 °C53 %1012.5 hPa16.1 kmWest (260°)20.4 km/h44.4 km/hOvercast
12:54 PM8.3 °C-2.8 °C46 %1012.5 hPa16.1 kmWest (260°)29.6 km/h38.9 km/hMostly Cloudy
1:54 PM10 °C-2.2 °C43 %1012.2 hPa16.1 kmWest (260°)31.5 km/h48.1 km/hMostly Cloudy
2:54 PM10.6 °C-3.3 °C38 %1012.5 hPa16.1 kmWest (260°)27.8 km/h46.3 km/hMostly Cloudy
3:54 PM10 °C-4.4 °C36 %1012.9 hPa16.1 kmWest (280°)33.3 km/h51.8 km/hMostly Cloudy
4:54 PM10.6 °C-5 °C33 %1013.9 hPa16.1 kmWest (280°)31.5 km/h51.8 km/hMostly Cloudy
5:54 PM10 °C-5.6 °C33 %1014.6 hPa16.1 kmWest (270°)37 km/h51.8 km/hOvercast
6:54 PM10 °C-5.6 °C33 %1015.2 hPa16.1 kmWest (280°)35.2 km/h50.1 km/hMostly Cloudy
7:54 PM8.9 °C-5.6 °C36 %1016.3 hPa16.1 kmWest (280°)27.8 km/h37 km/hClear
8:54 PM6.7 °C-4.4 °C45 %1017.3 hPa16.1 kmWNW (290°)11.1 km/hClear
9:54 PM4.4 °C-1.7 °C65 %1017.9 hPa16.1 kmCalmClear
10:54 PM3.9 °C-2.2 °C65 %1018.3 hPa16.1 kmWSW (250°)7.4 km/hClear
11:54 PM2.2 °C-1.7 °C76 %1019 hPa16.1 kmWSW (250°)9.3 km/hClear
Hourly data recorded from KSUS, located 0 kilometers away from St. Louis, Missouri







STORIES FROM OUR PARTNERS